Visibility
15.0 15.0 15.0 15.0 15.0 15.0 15.0 15.0 15.0 15.0 15.0 15.0 15.0 15.0 15.0 15.0 15.0 15.0 15.0 15.0 15.0 15.0 15.0 15.0 15.0 15.0 15.0 15.0 15.0 15.0 15.0 15.0 15.0 15.0 15.0 15.0 15.0 15.0
15.0 15.0 15.0 15.0 15.0 15.0 15.0 15.0 15.0 15.0 15.0 15.0 15.0 15.0 15.0 15.0 15.0 15.0 15.0 15.0 15.0 15.0 15.0 15.0 15.0 15.0 15.0 15.0 15.0 15.0 15.0 15.0 15.0 15.0 15.0 15.0 15.0 15.0
15.0 15.0 15.0 15.0 15.0 15.0 15.0 15.0 15.0 15.0 15.0 15.0 15.0 15.0 15.0 15.0 15.0 15.0 15.0 15.0 15.0 15.0 15.0 15.0 15.0 15.0 15.0 15.0 15.0 15.0 15.0 15.0 15.0 15.0 15.0 15.0 15.0 15.0
15.0 15.0 15.0 15.0 15.0 15.0 15.0 15.0 15.0 15.0 15.0 15.0 15.0 15.0 15.0 15.0 15.0 15.0 15.0 15.0 15.0 15.0 15.0 15.0 15.0 15.0 15.0 15.0 15.0 15.0 15.0 15.0 15.0 15.0 15.0 14.8 15.0 15.0
15.0 15.0 15.0 15.0 15.0 15.0 15.0 15.0 15.0 15.0 15.0 15.0 15.0 15.0 15.0 15.0 15.0 15.0 15.0 15.0 15.0 15.0 15.0 15.0 15.0 15.0 15.0 15.0 15.0 15.0 15.0 15.0 15.0 15.0 15.0 15.0 15.0 15.0
15.0 15.0 15.0 15.0 15.0 15.0 15.0 15.0 15.0 15.0 15.0 15.0 15.0 15.0 15.0 15.0 15.0 15.0 15.0 15.0 15.0 15.0 15.0 15.0 15.0 15.0 15.0 15.0 15.0 15.0 15.0 15.0 15.0 15.0 15.0 15.0 15.0 15.0
15.0 15.0 15.0 15.0 15.0 15.0 15.0 15.0 15.0 15.0 11.1 7.5 15.0 8.8 5.0 15.0 15.0 15.0 15.0 15.0 15.0 15.0 15.0 15.0 15.0 15.0 15.0 15.0 15.0 15.0 15.0 15.0 15.0 15.0 15.0 15.0 15.0 15.0
15.0 15.0 15.0 15.0 15.0 15.0 15.0 15.0 14.6 7.1 2.7 2.8 2.8 14.4 15.0 15.0 15.0 13.2 1.8 4.7 8.5 15.0 15.0 15.0 15.0 15.0 15.0 15.0 15.0 15.0 15.0 15.0 15.0 15.0 15.0 15.0 15.0 15.0
15.0 15.0 15.0 15.0 15.0 15.0 15.0 15.0 15.0 15.0 15.0 15.0 15.0 13.9 10.1 15.0 10.0 2.9 4.7 3.3 4.4 15.0 15.0 4.5 15.0 11.4 15.0 15.0 15.0 15.0 15.0 15.0 15.0 15.0 13.7 15.0 15.0 15.0
15.0 15.0 15.0 15.0 15.0 15.0 15.0 4.5 0.7 15.0 15.0 15.0 15.0 15.0 3.9 12.0 15.0 5.3 2.7 3.4 11.5 15.0 15.0 2.7 15.0 15.0 15.0 15.0 15.0 15.0 15.0 15.0 15.0 15.0 12.6 14.6 15.0 13.9
15.0 15.0 15.0 15.0 15.0 15.0 4.5 14.6 15.0 15.0 15.0 15.0 15.0 15.0 15.0 15.0 15.0 9.4 11.2 3.0 2.7 12.7 15.0 14.4 11.2 15.0 15.0 15.0 15.0 15.0 15.0 15.0 15.0 15.0 15.0 15.0 15.0 15.0
15.0 15.0 15.0 15.0 15.0 6.9 15.0 15.0 15.0 15.0 6.9 13.8 15.0 15.0 15.0 15.0 15.0 15.0 9.2 0.2 0.8 2.9 15.0 4.1 9.3 7.9 4.0 15.0 15.0 15.0 15.0 15.0 15.0 15.0 15.0 15.0 15.0 14.3
15.0 15.0 15.0 15.0 15.0 15.0 15.0 15.0 15.0 12.8 15.0 15.0 15.0 15.0 15.0 15.0 15.0 15.0 15.0 8.0 0.6 1.0 15.0 3.1 0.6 3.1 2.5 2.3 15.0 15.0 15.0 15.0 15.0 15.0 15.0 15.0 15.0 10.3
15.0 15.0 15.0 15.0 15.0 15.0 15.0 15.0 14.9 14.7 15.0 15.0 14.6 14.1 15.0 15.0 15.0 15.0 15.0 15.0 14.8 9.6 14.3 11.3 0.2 0.4 0.5 1.8 4.2 15.0 15.0 15.0 15.0 15.0 15.0 15.0 15.0 15.0
15.0 15.0 15.0 15.0 15.0 15.0 15.0 15.0 15.0 15.0 15.0 14.8 14.9 15.0 15.0 15.0 15.0 15.0 15.0 15.0 15.0 15.0 15.0 15.0 3.4 2.9 0.9 0.5 1.9 2.7 15.0 15.0 15.0 15.0 15.0 15.0 15.0 15.0
15.0 15.0 15.0 15.0 15.0 15.0 15.0 15.0 15.0 15.0 15.0 11.4 12.6 9.0 13.3 14.5 11.5 15.0 8.1 6.8 3.0 15.0 15.0 15.0 15.0 3.5 0.2 4.0 1.2 1.0 14.9 1.6 15.0 15.0 15.0 15.0 15.0 15.0
15.0 15.0 15.0 15.0 15.0 15.0 15.0 15.0 15.0 15.0 15.0 14.4 12.8 10.6 15.0 12.1 13.6 15.0 14.9 5.3 2.5 7.0 14.5 15.0 15.0 15.0 14.8 6.6 0.5 12.9 15.0 15.0 15.0 12.7 15.0 15.0 15.0 15.0
15.0 15.0 15.0 15.0 15.0 15.0 15.0 15.0 15.0 14.7 15.0 14.7 11.2 11.3 5.7 2.4 5.6 13.1 14.4 3.0 0.9 5.2 13.7 15.0 12.1 5.5 15.0 15.0 12.8 9.4 15.0 15.0 15.0 15.0 13.7 6.1 15.0 15.0
15.0 15.0 15.0 15.0 15.0 15.0 13.8 9.4 6.5 13.7 15.0 11.5 11.8 2.1 4.1 3.0 10.8 4.5 6.6 2.5 1.3 9.8 13.6 7.7 0.8 0.3 0.1 0.7 15.0 15.0 14.6 10.4 10.1 15.0 15.0 14.1 12.1 15.0
15.0 15.0 15.0 15.0 15.0 14.1 8.3 4.3 4.6 10.1 10.8 8.0 2.3 7.7 4.1 0.7 0.5 1.1 2.2 0.3 0.2 0.7 2.3 15.0 12.5 0.2 0.1 0.2 0.1 11.2 15.0 15.0 13.0 9.0 14.8 15.0 15.0 15.0
15.0 15.0 15.0 14.8 8.7 7.4 7.0 7.1 7.1 1.9 3.2 9.2 4.8 2.7 1.6 0.2 0.5 3.7 3.9 4.9 7.7 1.5 0.5 15.0 15.0 13.6 0.8 0.2 0.1 10.3 15.0 15.0 15.0 12.9 3.1 0.5 15.0 15.0
15.0 5.0 15.0 15.0 15.0 7.2 3.8 3.2 1.7 5.4 3.0 2.3 1.8 1.8 2.5 0.5 0.2 0.6 2.1 0.2 0.5 1.3 2.0 15.0 15.0 6.0 0.7 0.3 0.3 12.4 15.0 15.0 15.0 15.0 13.1 10.9 8.6 7.0
3.0 2.5 8.3 9.2 9.1 6.6 3.4 1.3 0.9 1.8 3.2 2.1 1.1 2.3 3.7 0.4 1.1 4.0 0.4 0.4 0.4 0.3 3.0 1.3 14.9 13.3 3.0 0.6 0.4 0.5 2.9 9.2 15.0 15.0 15.0 15.0 15.0 15.0